Flag for Canada Weather past 2 weeks in North Bay, Ontario, Canada

Now
57 °F

Scattered clouds.


Feels Like: 55 °F
Forecast: 50 / 74 °F
Wind: 8 mph from Northwest

Location: North Bay

Current Time: Jul 24, 2014 at 9:41:24 AM

Latest Report: Jul 24, 2014 at 8:00 AM


Visibility: 15 mi

Pressure: 30.06 "Hg

Humidity: 77%

Dew point: 50 °F

Location of North BayLocation

Historic Weather in North Bay — Graph

°F

North Bay temperature yesterday

Maximum temperature yesterday: 72 °F (at 12:00 AM)
Minimum temperature yesterday: 50 °F (at 11:00 PM)
Average temperature yesterday: 62 °F

Past Weeks' High & Low Weather Summary

 TemperatureHumidityPressure
High79 °F (Jul 22, 12:00 PM)100% (Jul 10, 1:00 AM)30.26 "Hg (Jul 10, 1:00 AM)
Low46 °F (Jul 10, 4:00 AM)33% (Jul 10, 5:00 PM)29.64 "Hg (Jul 15, 6:00 PM)
Average62 °F77%29.98 "Hg
* Reported Jul 9 8:00 AM — Jul 24 8:00 AM, North Bay, Weather by CustomWeather, © 2014

Note: Actual official high and low records may vary slightly from our data, if they occured in-between our weather recording intervals... More about our weather records

Advertising

North Bay weather history for previous 24 hours

 ConditionsComfort  
Time TempWeatherWind HumidityBarometerVisibility
8:00 AM
Jul 24
57 °FScattered clouds.8 mph77%30.06 "Hg15 mi
7:00 AM50 °FScattered clouds.6 mph94%30.06 "Hg15 mi
6:00 AM48 °FClear.6 mph87%30.06 "Hg9 mi
5:00 AM48 °FClear.2 mph87%30.06 "Hg9 mi
4:00 AM48 °FClear.5 mph87%30.06 "Hg9 mi
3:00 AM48 °FClear.5 mph87%30.06 "Hg9 mi
2:00 AM48 °FClear.5 mph87%30.07 "Hg9 mi
1:00 AM48 °FClear.3 mph94%30.07 "Hg9 mi
12:00 AM48 °FClear.2 mph94%30.07 "Hg9 mi
11:00 PM
Jul 23
50 °FClear.2 mph88%30.07 "Hg9 mi
10:00 PM55 °FPassing clouds.3 mph72%30.07 "Hg30 mi
9:00 PM59 °FPartly sunny.3 mph63%30.06 "Hg30 mi
8:00 PM61 °FPartly sunny.7 mph59%30.04 "Hg30 mi
7:00 PM63 °FPartly sunny.12 mph56%30.03 "Hg30 mi
6:00 PM64 °FPartly sunny.14 mph49%30.02 "Hg30 mi
5:00 PM66 °FPartly sunny.14 mph49%30.02 "Hg30 mi
4:00 PM66 °FPartly sunny.13 mph49%30.02 "Hg30 mi
3:00 PM68 °FScattered clouds.14 mph46%30.00 "Hg30 mi
2:00 PM66 °FScattered clouds.13 mph49%29.99 "Hg30 mi
1:00 PM66 °FScattered clouds.16 mph52%29.98 "Hg30 mi
12:00 PM63 °FScattered clouds.17 mph59%29.98 "Hg30 mi
11:00 AM57 °FPartly sunny.15 mph77%29.99 "Hg15 mi
10:00 AM57 °FPartly sunny.17 mph77%29.98 "Hg15 mi
9:00 AM55 °FOvercast.14 mph82%29.98 "Hg15 mi
Weather by CustomWeather, © 2014

See weather overviewHow to use our weather pages